,,,PA_Meas_PMT16A,,PR_Meas_QMR101_102,,RH_Meas_QMH101,,SR_Meas_QMS101,,TA_Meas_QMH101,,GenWind,,GenWind,
date,time,status,PA,status,PR,status,RH,status,SR,status,TA,status,DirAvg,status,SpdAvg,
2010-06-03, 00:00:04,VALID,1001.9,VALID,0,VALID,85.1389,VALID,0,VALID,25.4949,VALID,358,VALID,1.19766,
2010-06-03, 00:01:04,VALID,1001.91,VALID,0,VALID,85.3831,VALID,0,VALID,25.534,VALID,5,VALID,1.13516,
2010-06-03, 00:02:04,VALID,1001.86,VALID,0,VALID,85.2534,VALID,0,VALID,25.534,VALID,8,VALID,1.37148,
2010-06-03, 00:03:04,VALID,1001.82,VALID,0,VALID,85.3907,VALID,0,VALID,25.534,VALID,1,VALID,1.19297,
2010-06-03, 00:04:04,VALID,1001.76,VALID,0,VALID,85.3373,VALID,0,VALID,25.5535,VALID,360,VALID,0.965234,
2010-06-03, 00:05:04,VALID,1001.74,VALID,0,VALID,85.116,VALID,0,VALID,25.534,VALID,1,VALID,0.730469,
2010-06-03, 00:06:04,VALID,1001.67,VALID,0,VALID,84.4599,VALID,0,VALID,25.5535,VALID,9,VALID,1.15703,
2010-06-03, 00:07:04,VALID,1001.61,VALID,0,VALID,84.7193,VALID,0,VALID,25.573,VALID,345,VALID,1.18359,
2010-06-03, 00:08:04,VALID,1001.57,VALID,0,VALID,84.4752,VALID,0,VALID,25.6316,VALID,340,VALID,1.03711,
2010-06-03, 00:09:04,VALID,1001.55,VALID,0,VALID,84.7498,VALID,0,VALID,25.6511,VALID,337,VALID,0.455469,
2010-06-03, 00:10:04,VALID,1001.54,VALID,0,VALID,85.0397,VALID,0,VALID,25.6511,VALID,337,VALID,0.120312,
2010-06-03, 00:11:04,VALID,1001.55,VALID,0,VALID,84.8261,VALID,0,VALID,25.6316,VALID,337,VALID,0.352344,
2010-06-03, 00:12:04,VALID,1001.58,VALID,0,VALID,84.788,VALID,0,VALID,25.5906,VALID,105,VALID,1.38359,
2010-06-03, 00:13:04,VALID,1001.55,VALID,0,VALID,84.8566,VALID,0,VALID,25.6121,VALID,89,VALID,1.67734,
2010-06-03, 00:14:04,VALID,1001.57,VALID,0,VALID,84.8337,VALID,0,VALID,25.5711,VALID,73,VALID,1.74609,
2010-06-03, 00:15:04,VALID,1001.56,VALID,0,VALID,85.055,VALID,0,VALID,25.6121,VALID,91,VALID,1.05742,
2010-06-03, 00:16:04,VALID,1001.59,VALID,0,VALID,85.1694,VALID,0,VALID,25.6121,VALID,109,VALID,0.797266,
2010-06-03, 00:17:04,VALID,1001.61,VALID,0,VALID,85.3449,VALID,0,VALID,25.6316,VALID,108,VALID,0.422266,
2010-06-03, 00:18:04,VALID,1001.63,VALID,0,VALID,84.91,VALID,0,VALID,25.6121,VALID,133,VALID,0.527734,
2010-06-03, 00:19:04,VALID,1001.64,VALID,0,VALID,84.3836,VALID,0,VALID,25.6511,VALID,139,VALID,0.864844,
2010-06-03, 00:20:04,VALID,1001.67,VALID,0,VALID,83.3994,VALID,0.112286,VALID,25.6707,VALID,152,VALID,1.24688,
2010-06-03, 00:21:04,VALID,1001.66,VALID,0,VALID,82.2168,VALID,0,VALID,25.7468,VALID,162,VALID,1.77539,
2010-06-03, 00:22:04,VALID,1001.7,VALID,0,VALID,81.3699,VALID,0,VALID,25.9635,VALID,179,VALID,1.95586,
2010-06-03, 00:23:04,VALID,1001.77,VALID,0,VALID,80.6832,VALID,0,VALID,26.1783,VALID,169,VALID,2.92734,
2010-06-03, 00:24:04,VALID,1001.8,VALID,0,VALID,80.3018,VALID,0,VALID,26.2759,VALID,164,VALID,3.13281,
2010-06-03, 00:25:04,VALID,1001.8,VALID,0,VALID,80.1263,VALID,0,VALID,26.2954,VALID,160,VALID,2.85977,
2010-06-03, 00:26:04,VALID,1001.77,VALID,0,VALID,80.4086,VALID,0,VALID,26.315,VALID,153,VALID,2.51797,
2010-06-03, 00:27:04,VALID,1001.82,VALID,0,VALID,80.3857,VALID,0,VALID,26.315,VALID,141,VALID,2.75547,
2010-06-03, 00:28:04,VALID,1001.76,VALID,0,VALID,79.6456,VALID,0,VALID,26.354,VALID,137,VALID,2.6875,
2010-06-03, 00:29:04,VALID,1001.77,VALID,0,VALID,80.2712,VALID,0,VALID,26.3736,VALID,134,VALID,2.63711,
2010-06-03, 00:30:04,VALID,1001.77,VALID,0,VALID,79.9508,VALID,0,VALID,26.3345,VALID,133,VALID,2.84258,
2010-06-03, 00:31:04,VALID,1001.79,VALID,0,VALID,80.5459,VALID,0,VALID,26.315,VALID,132,VALID,2.36133,
2010-06-03, 00:32:04,VALID,1001.78,VALID,0,VALID,80.7443,VALID,0,VALID,26.2564,VALID,119,VALID,2.49688,
2010-06-03, 00:33:04,VALID,1001.78,VALID,0,VALID,81.5454,VALID,0,VALID,26.2173,VALID,124,VALID,2.0918,
2010-06-03, 00:34:04,VALID,1001.82,VALID,0,VALID,81.7972,VALID,0,VALID,26.1588,VALID,141,VALID,2.68438,
2010-06-03, 00:35:04,VALID,1001.82,VALID,0,VALID,82.2626,VALID,0,VALID,26.1392,VALID,157,VALID,2.43516,
2010-06-03, 00:36:04,VALID,1001.81,VALID,0,VALID,82.1176,VALID,0,VALID,26.1588,VALID,153,VALID,2.2457,
2010-06-03, 00:37:04,VALID,1001.77,VALID,0,VALID,81.1334,VALID,0,VALID,26.1978,VALID,143,VALID,2.23984,
2010-06-03, 00:38:04,VALID,1001.76,VALID,0,VALID,81.5301,VALID,0,VALID,26.2369,VALID,124,VALID,1.69687,
2010-06-03, 00:39:04,VALID,1001.71,VALID,0,VALID,81.1334,VALID,0,VALID,26.2369,VALID,110,VALID,2.05703,
2010-06-03, 00:40:04,VALID,1001.75,VALID,0,VALID,81.5835,VALID,0,VALID,26.2173,VALID,118,VALID,2.3668,
2010-06-03, 00:41:04,VALID,1001.73,VALID,0,VALID,81.1181,VALID,0,VALID,26.1978,VALID,124,VALID,2.48555,
2010-06-03, 00:42:04,VALID,1001.74,VALID,0,VALID,81.965,VALID,0,VALID,26.1978,VALID,146,VALID,0.902734,
2010-06-03, 00:43:04,VALID,1001.75,VALID,0,VALID,81.1944,VALID,0,VALID,26.1588,VALID,159,VALID,2.85273,
2010-06-03, 00:44:04,VALID,1001.72,VALID,0,VALID,80.9884,VALID,0,VALID,26.2759,VALID,171,VALID,2.80859,
2010-06-03, 00:45:04,VALID,1001.7,VALID,0,VALID,79.7219,VALID,0,VALID,26.354,VALID,138,VALID,3.1418,
2010-06-03, 00:46:04,VALID,1001.72,VALID,0,VALID,80.6832,VALID,0,VALID,26.4126,VALID,147,VALID,2.43555,
2010-06-03, 00:47:04,VALID,1001.74,VALID,0,VALID,80.5154,VALID,0,VALID,26.3931,VALID,150,VALID,2.52148,
2010-06-03, 00:48:04,VALID,1001.76,VALID,0,VALID,80.5001,VALID,0,VALID,26.3931,VALID,142,VALID,2.99805,
2010-06-03, 00:49:04,VALID,1001.74,VALID,0,VALID,80.5001,VALID,0,VALID,26.3931,VALID,144,VALID,2.02109,
2010-06-03, 00:50:04,VALID,1001.72,VALID,0,VALID,80.6985,VALID,0,VALID,26.354,VALID,138,VALID,2.34141,
2010-06-03, 00:51:04,VALID,1001.69,VALID,0,VALID,81.7285,VALID,0,VALID,26.315,VALID,142,VALID,1.84922,
2010-06-03, 00:52:04,VALID,1001.68,VALID,0,VALID,81.1105,VALID,0,VALID,26.2369,VALID,147,VALID,2.24609,
2010-06-03, 00:53:04,VALID,1001.66,VALID,0,VALID,81.5149,VALID,0,VALID,26.1958,VALID,146,VALID,2.03477,
2010-06-03, 00:54:04,VALID,1001.65,VALID,0,VALID,81.8124,VALID,0,VALID,26.1568,VALID,149,VALID,2.20039,
2010-06-03, 00:55:04,VALID,1001.63,VALID,0,VALID,81.8506,VALID,0,VALID,26.1783,VALID,149,VALID,2.25352,
2010-06-03, 00:56:04,VALID,1001.65,VALID,0,VALID,82.3236,VALID,0,VALID,26.1783,VALID,154,VALID,2.09453,
2010-06-03, 00:57:04,VALID,1001.65,VALID,0,VALID,82.8424,VALID,0,VALID,26.1372,VALID,161,VALID,2.11016,
2010-06-03, 00:58:04,VALID,1001.67,VALID,0,VALID,82.4075,VALID,0,VALID,26.1197,VALID,159,VALID,2.46563,
2010-06-03, 00:59:04,VALID,1001.66,VALID,0,VALID,82.4075,VALID,0,VALID,26.1392,VALID,155,VALID,2.23164,
2010-06-03, 01:00:04,VALID,1001.67,VALID,0,VALID,82.232,VALID,0,VALID,26.1197,VALID,154,VALID,2.07734,
2010-06-03, 01:01:04,VALID,1001.69,VALID,0,VALID,81.9574,VALID,0,VALID,26.1177,VALID,151,VALID,1.85273,
2010-06-03, 01:02:04,VALID,1001.67,VALID,0,VALID,81.82,VALID,0,VALID,26.1392,VALID,149,VALID,1.37266,
2010-06-03, 01:03:04,VALID,1001.65,VALID,0,VALID,82.026,VALID,0,VALID,26.1392,VALID,144,VALID,1.1543,
2010-06-03, 01:04:04,VALID,1001.68,VALID,0,VALID,81.8048,VALID,0,VALID,26.1197,VALID,145,VALID,1.29922,
2010-06-03, 01:05:04,VALID,1001.7,VALID,0,VALID,82.2092,VALID,0,VALID,26.0807,VALID,144,VALID,1.1,
2010-06-03, 01:06:04,VALID,1001.69,VALID,0,VALID,82.8119,VALID,0,VALID,26.0826,VALID,156,VALID,1.4875,
2010-06-03, 01:07:04,VALID,1001.74,VALID,0,VALID,82.6669,VALID,0,VALID,26.0221,VALID,153,VALID,1.49883,
2010-06-03, 01:08:04,VALID,1001.74,VALID,0,VALID,83.0484,VALID,0,VALID,26.0026,VALID,148,VALID,0.801953,
2010-06-03, 01:09:04,VALID,1001.76,VALID,0,VALID,83.2315,VALID,0,VALID,25.9635,VALID,149,VALID,1.19102,
2010-06-03, 01:10:04,VALID,1001.77,VALID,0,VALID,83.5977,VALID,0,VALID,25.903,VALID,140,VALID,1.23867,
2010-06-03, 01:11:04,VALID,1001.76,VALID,0,VALID,83.346,VALID,0,VALID,25.8659,VALID,120,VALID,1.37695,
2010-06-03, 01:12:04,VALID,1001.74,VALID,0,VALID,83.3994,VALID,0,VALID,25.8464,VALID,103,VALID,1.65039,
2010-06-03, 01:13:04,VALID,1001.74,VALID,0,VALID,83.4146,VALID,0,VALID,25.8268,VALID,97,VALID,1.47891,
2010-06-03, 01:14:04,VALID,1001.71,VALID,0,VALID,83.3689,VALID,0,VALID,25.8093,VALID,93,VALID,1.0918,
2010-06-03, 01:15:04,VALID,1001.71,VALID,0,VALID,83.468,VALID,0,VALID,25.8093,VALID,77,VALID,1.04531,
2010-06-03, 01:16:04,VALID,1001.69,VALID,0,VALID,84.0021,VALID,0,VALID,25.8093,VALID,53,VALID,1.3668,
2010-06-03, 01:17:04,VALID,1001.67,VALID,0,VALID,84.3226,VALID,0,VALID,25.7487,VALID,46,VALID,1.44141,
2010-06-03, 01:18:04,VALID,1001.71,VALID,0,VALID,84.3989,VALID,0,VALID,25.7292,VALID,51,VALID,1.22383,
2010-06-03, 01:19:04,VALID,1001.72,VALID,0,VALID,84.6201,VALID,0,VALID,25.6902,VALID,59,VALID,0.478125,
2010-06-03, 01:20:04,VALID,1001.7,VALID,0,VALID,84.2844,VALID,0,VALID,25.6707,VALID,61,VALID,0.45,
2010-06-03, 01:21:04,VALID,1001.69,VALID,0,VALID,84.7651,VALID,0,VALID,25.6707,VALID,61,VALID,0.133594,
2010-06-03, 01:22:04,VALID,1001.65,VALID,0,VALID,84.7956,VALID,0,VALID,25.6316,VALID,61,VALID,0.0015625,
2010-06-03, 01:23:04,VALID,1001.67,VALID,0,VALID,85.0397,VALID,0,VALID,25.6121,VALID,61,VALID,0.368359,
2010-06-03, 01:24:04,VALID,1001.65,VALID,0,VALID,85.0626,VALID,0,VALID,25.5926,VALID,108,VALID,0.646094,
2010-06-03, 01:25:04,VALID,1001.6,VALID,0,VALID,85.0092,VALID,0,VALID,25.5926,VALID,134,VALID,0.669922,
2010-06-03, 01:26:04,VALID,1001.58,VALID,0,VALID,85.3373,VALID,0,VALID,25.5926,VALID,160,VALID,1.26211,
2010-06-03, 01:27:04,VALID,1001.52,VALID,0,VALID,85.2915,VALID,0,VALID,25.6121,VALID,168,VALID,1.68594,
2010-06-03, 01:28:04,VALID,1001.49,VALID,0,VALID,85.4441,VALID,0,VALID,25.5926,VALID,173,VALID,1.10273,
2010-06-03, 01:29:04,VALID,1001.44,VALID,0,VALID,85.5891,VALID,0,VALID,25.534,VALID,173,VALID,0.504687,
2010-06-03, 01:30:04,VALID,1001.41,VALID,0.5,VALID,86.0545,VALID,0,VALID,25.5145,VALID,152,VALID,0.739062,
2010-06-03, 01:31:04,VALID,1001.39,VALID,0,VALID,85.9019,VALID,0,VALID,25.4754,VALID,164,VALID,1.26953,
2010-06-03, 01:32:04,VALID,1001.35,VALID,0,VALID,83.3917,VALID,0,VALID,25.4364,VALID,144,VALID,2.48125,
2010-06-03, 01:33:04,VALID,1001.34,VALID,0,VALID,84.4294,VALID,0,VALID,25.4754,VALID,149,VALID,1.68164,
2010-06-03, 01:34:04,VALID,1001.27,VALID,0,VALID,84.5057,VALID,0,VALID,25.4559,VALID,130,VALID,1.09102,
2010-06-03, 01:35:04,VALID,1001.26,VALID,0,VALID,83.9258,VALID,0,VALID,25.3973,VALID,127,VALID,1.68359,
2010-06-03, 01:36:04,VALID,1001.26,VALID,0,VALID,84.3302,VALID,0,VALID,25.4169,VALID,144,VALID,1.88281,
2010-06-03, 01:37:04,VALID,1001.26,VALID,0,VALID,85.3831,VALID,0,VALID,25.3778,VALID,138,VALID,1.62852,
2010-06-03, 01:38:04,VALID,1001.24,VALID,0,VALID,86.1613,VALID,0,VALID,25.3212,VALID,141,VALID,1.25195,
2010-06-03, 01:39:04,VALID,1001.19,VALID,0,VALID,85.8561,VALID,0,VALID,25.2217,VALID,137,VALID,1.31289,
2010-06-03, 01:40:04,VALID,1001.21,VALID,0,VALID,86.6649,VALID,0,VALID,25.1826,VALID,127,VALID,1.1707,
2010-06-03, 01:41:04,VALID,1001.17,VALID,0,VALID,86.497,VALID,0,VALID,25.1026,VALID,128,VALID,1.23125,
2010-06-03, 01:42:04,VALID,1001.13,VALID,0.5,VALID,86.4131,VALID,0,VALID,25.0655,VALID,105,VALID,1.00352,
2010-06-03, 01:43:04,VALID,1001.13,VALID,0,VALID,87.0234,VALID,0,VALID,25.046,VALID,92,VALID,0.746094,
2010-06-03, 01:44:04,VALID,1001.12,VALID,0,VALID,87.0158,VALID,0,VALID,25.0265,VALID,97,VALID,0.752344,
2010-06-03, 01:45:04,VALID,1001.15,VALID,0,VALID,87.6033,VALID,0,VALID,24.9874,VALID,122,VALID,0.454688,
2010-06-03, 01:46:04,VALID,1001.15,VALID,0,VALID,87.7635,VALID,0,VALID,24.9484,VALID,178,VALID,0.821094,
2010-06-03, 01:47:04,VALID,1001.17,VALID,0,VALID,88.1068,VALID,0,VALID,24.9289,VALID,167,VALID,1.50234,
2010-06-03, 01:48:04,VALID,1001.15,VALID,0,VALID,88.1679,VALID,0,VALID,24.9308,VALID,167,VALID,1.54102,
2010-06-03, 01:49:04,VALID,1001.13,VALID,0,VALID,88.0763,VALID,0,VALID,24.9112,VALID,136,VALID,1.35703,
2010-06-03, 01:50:04,VALID,1001.12,VALID,0,VALID,88.3663,VALID,0,VALID,24.9112,VALID,115,VALID,1.32305,
2010-06-03, 01:51:04,VALID,1001.1,VALID,0,VALID,88.8927,VALID,0,VALID,24.8722,VALID,57,VALID,1.41172,
2010-06-03, 01:52:04,VALID,1001.06,VALID,0,VALID,88.7096,VALID,0,VALID,24.8332,VALID,35,VALID,2.04453,
2010-06-03, 01:53:04,VALID,1001.03,VALID,0,VALID,88.7325,VALID,0,VALID,24.7941,VALID,39,VALID,1.58281,
2010-06-03, 01:54:04,VALID,1001.06,VALID,0,VALID,88.9232,VALID,0,VALID,24.7746,VALID,50,VALID,1.52031,
2010-06-03, 01:55:04,VALID,1001.04,VALID,0,VALID,89.587,VALID,0,VALID,24.7551,VALID,68,VALID,0.997656,
2010-06-03, 01:56:04,VALID,1001.05,VALID,0,VALID,89.8464,VALID,0,VALID,24.716,VALID,95,VALID,1.31133,
2010-06-03, 01:57:04,VALID,1001,VALID,0,VALID,90.3576,VALID,0,VALID,24.6965,VALID,85,VALID,1.01641,
2010-06-03, 01:58:04,VALID,1000.94,VALID,0,VALID,90.7009,VALID,0,VALID,24.6575,VALID,45,VALID,1.14883,
2010-06-03, 01:59:04,VALID,1000.9,VALID,0,VALID,90.9374,VALID,0,VALID,24.638,VALID,33,VALID,1.47578,
2010-06-03, 02:00:04,VALID,1000.87,VALID,0,VALID,91.2579,VALID,0,VALID,24.6398,VALID,36,VALID,0.832422,
2010-06-03, 02:01:04,VALID,1000.85,VALID,0,VALID,91.5707,VALID,0,VALID,24.5989,VALID,50,VALID,0.719141,
2010-06-03, 02:02:04,VALID,1000.83,VALID,0.5,VALID,91.8148,VALID,0,VALID,24.5794,VALID,50,VALID,1.02305,
2010-06-03, 02:03:04,VALID,1000.83,VALID,0,VALID,91.9751,VALID,0,VALID,24.558,VALID,50,VALID,1.10117,
2010-06-03, 02:04:04,VALID,1000.78,VALID,0,VALID,91.914,VALID,0,VALID,24.5599,VALID,30,VALID,1.79961,
2010-06-03, 02:05:04,VALID,1000.75,VALID,0,VALID,91.7309,VALID,0,VALID,24.4995,VALID,23,VALID,2.13945,
2010-06-03, 02:06:04,VALID,1000.73,VALID,0,VALID,91.6623,VALID,0,VALID,24.4604,VALID,25,VALID,2.24062,
2010-06-03, 02:07:04,VALID,1000.74,VALID,0,VALID,91.8072,VALID,0,VALID,24.4818,VALID,24,VALID,1.56406,
2010-06-03, 02:08:04,VALID,1000.74,VALID,0,VALID,91.9217,VALID,0,VALID,24.4214,VALID,18,VALID,2.06016,
2010-06-03, 02:09:04,VALID,1000.7,VALID,0,VALID,91.9598,VALID,0,VALID,24.4019,VALID,19,VALID,2.35547,
2010-06-03, 02:10:04,VALID,1000.67,VALID,0,VALID,91.998,VALID,0,VALID,24.3824,VALID,15,VALID,1.81172,
2010-06-03, 02:11:04,VALID,1000.66,VALID,0,VALID,92.0285,VALID,0,VALID,24.3629,VALID,13,VALID,1.88867,
2010-06-03, 02:12:04,VALID,1000.67,VALID,0,VALID,92.1353,VALID,0,VALID,24.3629,VALID,359,VALID,1.57461,
2010-06-03, 02:13:04,VALID,1000.68,VALID,0,VALID,92.3642,VALID,0,VALID,24.3433,VALID,17,VALID,0.951953,
2010-06-03, 02:14:04,VALID,1000.7,VALID,0,VALID,92.5168,VALID,0,VALID,24.3238,VALID,57,VALID,0.486328,
2010-06-03, 02:15:04,VALID,1000.71,VALID,0,VALID,92.6694,VALID,0,VALID,24.3238,VALID,62,VALID,0.698047,
2010-06-03, 02:16:04,VALID,1000.7,VALID,0,VALID,92.7762,VALID,0,VALID,24.3043,VALID,60,VALID,1.11523,
2010-06-03, 02:17:04,VALID,1000.68,VALID,0,VALID,92.7609,VALID,0,VALID,24.2848,VALID,44,VALID,1.15156,
2010-06-03, 02:18:04,VALID,1000.69,VALID,0.5,VALID,92.8372,VALID,0.112286,VALID,24.2848,VALID,46,VALID,1.35859,
2010-06-03, 02:19:04,VALID,1000.69,VALID,0,VALID,92.7838,VALID,0,VALID,24.2848,VALID,46,VALID,1.36094,
2010-06-03, 02:20:04,VALID,1000.69,VALID,0,VALID,92.6999,VALID,0,VALID,24.2848,VALID,56,VALID,1.0707,
2010-06-03, 02:21:04,VALID,1000.73,VALID,0,VALID,92.7457,VALID,0,VALID,24.3043,VALID,58,VALID,0.900391,
2010-06-03, 02:22:04,VALID,1000.67,VALID,0,VALID,92.7838,VALID,0.112286,VALID,24.3238,VALID,39,VALID,0.948047,
2010-06-03, 02:23:04,VALID,1000.67,VALID,0,VALID,92.822,VALID,0,VALID,24.3043,VALID,20,VALID,1.49453,
2010-06-03, 02:24:04,VALID,1000.72,VALID,0,VALID,92.8677,VALID,0,VALID,24.3043,VALID,36,VALID,1.1875,
2010-06-03, 02:25:04,VALID,1000.76,VALID,0,VALID,92.8983,VALID,0,VALID,24.3043,VALID,53,VALID,1.28281,
2010-06-03, 02:26:04,VALID,1000.82,VALID,0,VALID,92.8677,VALID,0,VALID,24.2634,VALID,60,VALID,1.08867,
2010-06-03, 02:27:04,VALID,1000.85,VALID,0,VALID,92.7075,VALID,0,VALID,24.2653,VALID,51,VALID,1.54844,
2010-06-03, 02:28:04,VALID,1000.92,VALID,0,VALID,92.6007,VALID,0,VALID,24.2653,VALID,68,VALID,1.3457,
2010-06-03, 02:29:04,VALID,1000.92,VALID,0,VALID,92.5702,VALID,0.112286,VALID,24.2653,VALID,62,VALID,0.600391,
2010-06-03, 02:30:04,VALID,1000.97,VALID,0,VALID,92.5626,VALID,0.112286,VALID,24.2653,VALID,89,VALID,0.632031,
2010-06-03, 02:31:04,VALID,1001.01,VALID,0,VALID,92.5931,VALID,0,VALID,24.2671,VALID,95,VALID,0.4,
2010-06-03, 02:32:04,VALID,1001.05,VALID,0,VALID,92.6694,VALID,0,VALID,24.2671,VALID,95,VALID,0,
2010-06-03, 02:33:05,VALID,1001.06,VALID,0,VALID,92.7228,VALID,0,VALID,24.2263,VALID,95,VALID,0.00195313,
2010-06-03, 02:34:05,VALID,1001.12,VALID,0,VALID,92.7685,VALID,0,VALID,24.2067,VALID,105,VALID,0.941016,
2010-06-03, 02:35:05,VALID,1001.15,VALID,0,VALID,92.8296,VALID,0,VALID,24.2263,VALID,119,VALID,1.26602,
2010-06-03, 02:36:05,VALID,1001.18,VALID,0,VALID,92.8525,VALID,0,VALID,24.2067,VALID,136,VALID,1.54062,
2010-06-03, 02:37:05,VALID,1001.21,VALID,0,VALID,92.883,VALID,0,VALID,24.2263,VALID,148,VALID,1.63398,
2010-06-03, 02:38:05,VALID,1001.2,VALID,0,VALID,92.8143,VALID,0,VALID,24.2263,VALID,154,VALID,1.36523,
2010-06-03, 02:39:05,VALID,1001.2,VALID,0,VALID,92.7457,VALID,0,VALID,24.2671,VALID,156,VALID,1.5957,
2010-06-03, 02:40:05,VALID,1001.22,VALID,0,VALID,92.7228,VALID,0,VALID,24.2848,VALID,148,VALID,1.06758,
2010-06-03, 02:41:05,VALID,1001.2,VALID,0,VALID,92.5091,VALID,0,VALID,24.2848,VALID,151,VALID,1.51484,
2010-06-03, 02:42:05,VALID,1001.2,VALID,0,VALID,92.4023,VALID,0,VALID,24.2848,VALID,146,VALID,1.33555,
2010-06-03, 02:43:05,VALID,1001.21,VALID,0,VALID,92.3566,VALID,0,VALID,24.3043,VALID,131,VALID,1.15195,
2010-06-03, 02:44:05,VALID,1001.24,VALID,0,VALID,92.2497,VALID,0,VALID,24.3043,VALID,127,VALID,1.16094,
2010-06-03, 02:45:05,VALID,1001.23,VALID,0,VALID,92.2192,VALID,0,VALID,24.3043,VALID,127,VALID,0.999219,
2010-06-03, 02:46:05,VALID,1001.26,VALID,0,VALID,92.1811,VALID,0,VALID,24.3043,VALID,125,VALID,1.52148,
2010-06-03, 02:47:05,VALID,1001.26,VALID,0,VALID,91.9522,VALID,0,VALID,24.3043,VALID,123,VALID,1.52578,
2010-06-03, 02:48:05,VALID,1001.26,VALID,0,VALID,91.9598,VALID,0,VALID,24.3647,VALID,124,VALID,0.995313,
2010-06-03, 02:49:05,VALID,1001.27,VALID,0,VALID,91.9293,VALID,0,VALID,24.3433,VALID,117,VALID,0.951953,
2010-06-03, 02:50:05,VALID,1001.26,VALID,0,VALID,91.8301,VALID,0,VALID,24.3433,VALID,79,VALID,0.941406,
2010-06-03, 02:51:05,VALID,1001.27,VALID,0,VALID,91.7233,VALID,0,VALID,24.3433,VALID,71,VALID,1.07109,
2010-06-03, 02:52:05,VALID,1001.32,VALID,0,VALID,91.8683,VALID,0,VALID,24.3629,VALID,83,VALID,0.729688,
2010-06-03, 02:53:05,VALID,1001.35,VALID,0,VALID,91.9751,VALID,0,VALID,24.3433,VALID,100,VALID,0.964844,
2010-06-03, 02:54:05,VALID,1001.36,VALID,0,VALID,92.0895,VALID,0.112286,VALID,24.3629,VALID,100,VALID,0.949219,
2010-06-03, 02:55:05,VALID,1001.37,VALID,0,VALID,92.2421,VALID,0,VALID,24.3415,VALID,82,VALID,1.1832,
2010-06-03, 02:56:05,VALID,1001.37,VALID,0,VALID,92.3413,VALID,0.112286,VALID,24.3629,VALID,73,VALID,1.43359,
2010-06-03, 02:57:05,VALID,1001.35,VALID,0,VALID,92.3489,VALID,0,VALID,24.3433,VALID,76,VALID,1.2625,
2010-06-03, 02:58:05,VALID,1001.35,VALID,0,VALID,92.3337,VALID,0,VALID,24.322,VALID,87,VALID,1.34375,
2010-06-03, 02:59:05,VALID,1001.34,VALID,0,VALID,92.3794,VALID,0,VALID,24.3824,VALID,104,VALID,0.782031,
2010-06-03, 03:00:05,VALID,1001.36,VALID,0,VALID,92.3489,VALID,0,VALID,24.3629,VALID,115,VALID,1.01914,
2010-06-03, 03:01:05,VALID,1001.35,VALID,0,VALID,92.0666,VALID,0,VALID,24.3433,VALID,116,VALID,1.68984,
2010-06-03, 03:02:05,VALID,1001.33,VALID,0,VALID,91.8225,VALID,0,VALID,24.3824,VALID,120,VALID,1.32539,
2010-06-03, 03:03:05,VALID,1001.33,VALID,0,VALID,91.5478,VALID,0,VALID,24.4019,VALID,122,VALID,1.32773,
2010-06-03, 03:04:05,VALID,1001.34,VALID,0,VALID,91.3494,VALID,0,VALID,24.4214,VALID,119,VALID,1.32344,
2010-06-03, 03:05:05,VALID,1001.34,VALID,0,VALID,91.3189,VALID,0,VALID,24.4409,VALID,108,VALID,1.19102,
2010-06-03, 03:06:05,VALID,1001.35,VALID,0,VALID,91.4181,VALID,0,VALID,24.48,VALID,105,VALID,0.985547,
2010-06-03, 03:07:05,VALID,1001.36,VALID,0,VALID,91.4486,VALID,0,VALID,24.4604,VALID,105,VALID,1.15039,
2010-06-03, 03:08:05,VALID,1001.36,VALID,0,VALID,91.502,VALID,0,VALID,24.4409,VALID,109,VALID,0.904297,
2010-06-03, 03:09:05,VALID,1001.38,VALID,0,VALID,91.4868,VALID,0,VALID,24.4604,VALID,120,VALID,1.14141,
2010-06-03, 03:10:05,VALID,1001.38,VALID,0,VALID,91.5478,VALID,0,VALID,24.4409,VALID,130,VALID,1.00781,
2010-06-03, 03:11:05,VALID,1001.39,VALID,0,VALID,91.5936,VALID,0,VALID,24.4409,VALID,141,VALID,1.05117,
2010-06-03, 03:12:05,VALID,1001.4,VALID,0,VALID,91.6012,VALID,0,VALID,24.4409,VALID,171,VALID,1.01719,
2010-06-03, 03:13:05,VALID,1001.41,VALID,0,VALID,91.6088,VALID,0,VALID,24.4409,VALID,154,VALID,1.00859,
2010-06-03, 03:14:05,VALID,1001.36,VALID,0,VALID,91.6623,VALID,0,VALID,24.48,VALID,163,VALID,0.89375,
2010-06-03, 03:15:05,VALID,1001.36,VALID,0,VALID,91.5554,VALID,0,VALID,24.48,VALID,166,VALID,0.710547,
2010-06-03, 03:16:05,VALID,1001.36,VALID,0,VALID,91.7004,VALID,0,VALID,24.48,VALID,171,VALID,0.837891,
2010-06-03, 03:17:05,VALID,1001.36,VALID,0,VALID,91.6012,VALID,0,VALID,24.4995,VALID,191,VALID,1.17773,
2010-06-03, 03:18:05,VALID,1001.36,VALID,0,VALID,91.5249,VALID,0,VALID,24.558,VALID,192,VALID,1.23164,
2010-06-03, 03:19:05,VALID,1001.32,VALID,0,VALID,91.6012,VALID,0,VALID,24.5971,VALID,197,VALID,1.3168,
2010-06-03, 03:20:05,VALID,1001.3,VALID,0,VALID,91.5249,VALID,0,VALID,24.6166,VALID,217,VALID,0.878125,
2010-06-03, 03:21:05,VALID,1001.28,VALID,0,VALID,91.2426,VALID,0,VALID,24.6361,VALID,220,VALID,0.805078,
2010-06-03, 03:22:05,VALID,1001.25,VALID,0,VALID,91.1358,VALID,0,VALID,24.6361,VALID,228,VALID,0.660156,
2010-06-03, 03:23:05,VALID,1001.19,VALID,0,VALID,91.0671,VALID,0,VALID,24.6361,VALID,258,VALID,1.05039,
2010-06-03, 03:24:05,VALID,1001.15,VALID,0,VALID,91.1434,VALID,0,VALID,24.6361,VALID,258,VALID,1.27266,
2010-06-03, 03:25:05,VALID,1001.12,VALID,0,VALID,90.9527,VALID,0,VALID,24.638,VALID,252,VALID,1.27656,
2010-06-03, 03:26:05,VALID,1001.12,VALID,0,VALID,90.9374,VALID,0,VALID,24.6166,VALID,241,VALID,1.03242,
2010-06-03, 03:27:05,VALID,1001.12,VALID,0,VALID,91.0671,VALID,0,VALID,24.5971,VALID,241,VALID,0.372656,
2010-06-03, 03:28:05,VALID,1001.11,VALID,0,VALID,91.1511,VALID,0,VALID,24.5775,VALID,224,VALID,0.609766,
2010-06-03, 03:29:05,VALID,1001.1,VALID,0,VALID,91.2808,VALID,0,VALID,24.558,VALID,225,VALID,0.409766,
2010-06-03, 03:30:05,VALID,1001.16,VALID,0,VALID,91.3189,VALID,0,VALID,24.519,VALID,227,VALID,0.330859,
2010-06-03, 03:31:05,VALID,1001.18,VALID,0,VALID,91.3876,VALID,0,VALID,24.519,VALID,227,VALID,0.347266,
2010-06-03, 03:32:05,VALID,1001.17,VALID,0,VALID,91.3418,VALID,0,VALID,24.519,VALID,170,VALID,0.414453,
2010-06-03, 03:33:05,VALID,1001.22,VALID,0,VALID,91.3952,VALID,0,VALID,24.4818,VALID,147,VALID,0.217969,
2010-06-03, 03:34:05,VALID,1001.22,VALID,0,VALID,91.3571,VALID,0,VALID,24.4623,VALID,73,VALID,1.06641,
2010-06-03, 03:35:05,VALID,1001.21,VALID,0,VALID,91.4944,VALID,0,VALID,24.4623,VALID,73,VALID,1.66523,
2010-06-03, 03:36:05,VALID,1001.19,VALID,0,VALID,91.7538,VALID,0,VALID,24.48,VALID,71,VALID,1.2043,
2010-06-03, 03:37:05,VALID,1001.12,VALID,0,VALID,91.9293,VALID,0,VALID,24.4604,VALID,53,VALID,1.13867,
2010-06-03, 03:38:05,VALID,1001.1,VALID,0.5,VALID,92.0209,VALID,0,VALID,24.4623,VALID,53,VALID,0.991797,
2010-06-03, 03:39:05,VALID,1001.07,VALID,0,VALID,92.0666,VALID,0,VALID,24.4428,VALID,49,VALID,0.519141,
2010-06-03, 03:40:05,VALID,1001.09,VALID,0,VALID,92.204,VALID,0,VALID,24.4428,VALID,6,VALID,0.352734,
2010-06-03, 03:41:05,VALID,1001.07,VALID,0,VALID,92.2497,VALID,0,VALID,24.4428,VALID,6,VALID,0.312109,
2010-06-03, 03:42:05,VALID,1001.15,VALID,0,VALID,92.41,VALID,0,VALID,24.4019,VALID,6,VALID,0.230469,
2010-06-03, 03:43:05,VALID,1001.2,VALID,0,VALID,92.4481,VALID,0,VALID,24.4233,VALID,6,VALID,0.690625,
2010-06-03, 03:44:05,VALID,1001.24,VALID,0,VALID,92.4634,VALID,0,VALID,24.4233,VALID,12,VALID,0.957422,
2010-06-03, 03:45:05,VALID,1001.26,VALID,0,VALID,92.4481,VALID,0,VALID,24.4037,VALID,29,VALID,1.37266,
2010-06-03, 03:46:05,VALID,1001.29,VALID,0,VALID,92.4176,VALID,0,VALID,24.4037,VALID,32,VALID,1.76797,